GW0587 Weather Reports


Display with metric or nautical units.
time (UTC)temp
F
wind
direction
speed
MPH
gust
MPH
rain 1hr
in
rain 24hr
in
rain mn
in
humidity
%
barometer
mb
20260905150051 93 339 1.0 3.0 0.00 0.00 0.00 60 1015.0
20260905144549 92 0 0.0 2.0 0.00 0.00 0.00 62 1014.8
20260905143048 91 58 1.0 3.0 0.00 0.00 0.00 63 1014.9
20260905141548 90 0 0.0 3.0 0.00 0.00 0.00 65 1014.9
20260905140049 89 0 0.0 2.0 0.00 0.00 0.00 66 1014.6
20260905134557 88 0 0.0 0.0 0.00 0.00 0.00 68 1014.8
20260905133058 86 0 0.0 0.0 0.00 0.00 0.00 72 1015.0
20260905131600 85 0 0.0 0.0 0.00 0.00 0.00 74 1014.7
20260905130059 83 0 0.0 0.0 0.00 0.00 0.00 78 1014.8
20260905124559 81 0 0.0 0.0 0.00 0.00 0.00 82 1014.8
20260905123105 79 0 0.0 0.0 0.00 0.00 0.00 85 1014.6
20260905121554 78 0 0.0 0.0 0.00 0.00 0.00 86 1014.6
20260905120050 77 0 0.0 0.0 0.00 0.00 0.00 86 1014.6
20260905114603 77 0 0.0 0.0 0.00 0.00 0.00 86 1014.6
20260905113054 77 0 0.0 0.0 0.00 0.00 0.00 86 1014.3
20260905111552 77 0 0.0 0.0 0.00 0.00 0.00 85 1014.2
20260905110047 77 0 0.0 0.0 0.00 0.00 0.00 85 1014.0
20260905104555 78 0 0.0 0.0 0.00 0.00 0.00 85 1014.0
20260905103104 78 0 0.0 0.0 0.00 0.00 0.00 84 1014.1
20260905101605 78 0 0.0 0.0 0.00 0.00 0.00 83 1013.9
20260905100117 78 0 0.0 0.0 0.00 0.00 0.00 83 1014.1
20260905094550 79 0 0.0 0.0 0.00 0.00 0.00 82 1014.1
20260905093059 79 0 0.0 0.0 0.00 0.00 0.00 82 1013.9
20260905091601 79 0 0.0 0.0 0.00 0.00 0.00 81 1013.8
20260905090052 79 0 0.0 0.0 0.00 0.00 0.00 81 1014.0
20260905084552 79 0 0.0 0.0 0.00 0.00 0.00 80 1013.9
20260905083105 80 0 0.0 0.0 0.00 0.00 0.00 80 1014.0
20260905081558 80 0 0.0 0.0 0.00 0.00 0.00 80 1013.9
20260905080051 80 0 0.0 0.0 0.00 0.00 0.00 79 1013.9
20260905074549 80 0 0.0 0.0 0.00 0.00 0.00 78 1013.9
20260905073049 80 0 0.0 0.0 0.00 0.00 0.00 77 1014.1
20260905071557 81 0 0.0 0.0 0.00 0.00 0.00 77 1014.1
20260905070058 81 0 0.0 0.0 0.00 0.00 0.00 76 1013.9
20260905064607 82 0 0.0 0.0 0.00 0.00 0.00 75 1013.9
20260905063048 82 0 0.0 0.0 0.00 0.00 0.00 74 1014.1
20260905061547 82 0 0.0 0.0 0.00 0.00 0.00 73 1014.1
20260905060052 83 0 0.0 0.0 0.00 0.00 0.00 72 1013.9
20260905054641 84 0 0.0 0.0 0.00 0.00 0.00 71 1013.8
20260905053049 84 0 0.0 0.0 0.00 0.00 0.00 70 1014.0
20260905051557 84 0 0.0 0.0 0.00 0.00 0.00 69 1014.0
20260905050055 85 0 0.0 0.0 0.00 0.00 0.00 69 1014.1
20260905044603 85 0 0.0 0.0 0.00 0.00 0.00 68 1014.0
20260905043103 86 0 0.0 0.0 0.00 0.00 0.00 67 1014.2
20260905041557 87 0 0.0 0.0 0.00 0.00 0.00 64 1014.1
20260905040106 88 0 0.0 0.0 0.00 0.00 0.00 63 1014.2
20260905034600 88 99 0.0 1.0 0.00 0.00 0.00 62 1014.0
20260905033059 88 0 0.0 1.0 0.00 0.00 0.00 62 1014.1
20260905031556 89 0 0.0 2.0 0.00 0.00 0.00 61 1014.2
20260905030053 89 0 0.0 1.0 0.00 0.00 0.00 60 1014.3
20260905024610 90 177 0.0 2.0 0.00 0.00 0.00 59 1014.1
20260905023057 89 0 0.0 4.0 0.00 0.00 0.00 60 1014.0
20260905021548 88 142 1.0 4.0 0.00 0.00 0.00 62 1014.1
20260905020059 87 0 0.0 0.0 0.00 0.00 0.00 64 1013.8
20260905014552 88 0 0.0 0.0 0.00 0.00 0.00 63 1013.5
20260905013048 88 0 0.0 0.0 0.00 0.00 0.00 61 1013.5
20260905011552 89 0 0.0 0.0 0.00 0.00 0.00 60 1013.7
20260905010108 90 0 0.0 0.0 0.00 0.00 0.00 58 1013.5
20260905004556 92 0 0.0 0.0 0.00 0.00 0.00 57 1013.4
20260905003049 93 0 0.0 1.0 0.00 0.00 0.00 54 1013.3
20260905001557 94 0 0.0 1.0 0.00 0.00 0.00 54 1013.2
20260905000054 95 0 0.0 1.0 0.00 0.00 0.00 51 1013.1
20260904234553 96 0 0.0 0.0 0.00 0.00 0.00 50 1012.9
20260904233047 97 327 0.0 3.0 0.00 0.00 0.00 47 1012.8
20260904231602 97 0 0.0 3.0 0.00 0.00 0.00 46 1012.8
20260904230057 98 0 0.0 6.0 0.00 0.00 0.00 45 1012.8
20260904224554 98 0 0.0 3.0 0.00 0.00 0.00 46 1012.8
20260904223052 98 0 0.0 0.0 0.00 0.00 0.00 45 1012.8
20260904221555 97 0 0.0 0.0 0.00 0.00 0.00 44 1012.8
20260904214551 98 0 1.0 6.0 0.00 0.00 0.00 44 1012.8
20260904213100 98 360 2.0 8.0 0.00 0.00 0.00 44 1013.0
20260904211558 98 0 0.0 4.0 0.00 0.00 0.00 44 1013.1
20260904210059 98 272 1.0 6.0 0.00 0.00 0.00 46 1013.3
20260904204557 98 0 0.0 4.0 0.00 0.00 0.00 46 1013.6
20260904203058 98 0 0.0 2.0 0.00 0.00 0.00 47 1013.9
20260904201555 99 350 0.0 6.0 0.00 0.00 0.00 46 1014.0
20260904200106 101 344 1.0 6.0 0.00 0.00 0.00 45 1014.4
20260904194558 100 153 2.0 4.0 0.00 0.00 0.00 44 1014.5
20260904193050 99 0 0.0 6.0 0.00 0.00 0.00 45 1014.9
20260904191546 99 0 0.0 5.0 0.00 0.00 0.00 47 1015.2
20260904190058 98 0 0.0 4.0 0.00 0.00 0.00 48 1015.1
20260904184548 97 63 2.0 6.0 0.00 0.00 0.00 50 1015.3
20260904183049 97 121 2.0 7.0 0.00 0.00 0.00 50 1015.5
20260904181558 97 0 1.0 6.0 0.00 0.00 0.00 50 1015.9
20260904180055 97 124 1.0 4.0 0.00 0.00 0.00 50 1016.1
20260904174607 97 0 0.0 4.0 0.00 0.00 0.00 51 1016.1
20260904173059 97 330 1.0 6.0 0.00 0.00 0.00 52 1016.1
20260904171555 97 0 1.0 4.0 0.00 0.00 0.00 52 1016.5
20260904170054 96 0 0.0 5.0 0.00 0.00 0.00 53 1016.7
20260904164549 96 28 1.0 5.0 0.00 0.00 0.00 55 1016.8
20260904163047 95 49 1.0 8.0 0.00 0.00 0.00 54 1016.6
20260904161602 96 0 1.0 3.0 0.00 0.00 0.00 53 1016.7
20260904160054 95 271 0.0 3.0 0.00 0.00 0.00 55 1016.8
20260904154551 94 70 0.0 3.0 0.00 0.00 0.00 57 1017.0
20260904153049 94 285 1.0 4.0 0.00 0.00 0.00 57 1016.9
20260904151556 93 0 0.0 3.0 0.00 0.00 0.00 59 1016.8